CZ-4 DEB, 26196

Orbit data source: Space-Track

CZ-4 DEB, 26196 is space debris in SSO originally from a launch on Thu, 14 Oct 1999 UTC launched from the Taiyaun Space Center, China (TSC). Debris objects in space refer to the collection of defunct objects orbiting the Earth. Examples of debris include non-operational satellites, rocket bodies, and fragments generated from explosions, collisions, or faulty payload assembly.

Loading next visibility...
Identifier
26196, 1999-057CJ
Orbit
SSO
Country
Flag of CNCN / PRC
Related business
Manufacturer
Unknown
Mission
Spacecraft
Bus & Motor
Unknown
Mass
Unknown
Launch date (UTC)
1999-10-14 (26 years ago)
Launch vehicle
Unknown
Launch site
Taiyaun Space Center, China (TSC)
Object type
Payload
Rocket body
Debris
Shape & HBR
Unknown shape, 0.1 m
Radar Cross Section
Small (<0.1 m²)

Expand to show TLE details & history
Last TLE update: 11 hours ago

TLE from 11 hours ago
0 CZ-4 DEB
1 26196U 99057CJ  26093.70951887  .00000972  00000-0  64935-3 0  9997
2 26196  98.9022 354.4317 0337377  35.8464 349.7153 13.78809897306767
Epoch: 2026-04-03T17:01Z
TLE epoch observation values (Epoch: 2026-04-03T17:01:42.430Z)
Latitude
24.55138°
Longitude
-97.11581°
Altitude
727.396 km
Speed
7.617 km/s
True Right ascension
23h 21m 24s
True Declination
24° 25' 16"
Sunlit
Object was in daylight at epoch
Visualization orbit readout
Latitude
Unknown
Longitude
Unknown
Altitude
Unknown
Speed
Unknown
Apparent Right ascension
Unknown
Apparent Declination
Unknown
Sunlit
N/A
Visualization observer readout
Local Sidereal Time
09:52:54
Azimuth
Unknown
Elevation
Unknown
Doppler factor
Unknown
Orbital elements
Apogee altitude
1,213.081 km
Perigee altitude
717.578 km
Semi-major axis
7,343.466 km
Eccentricity
0.03374
Inclination
98.9022°
RAAN
354.4317°
Arg. of periapsis
35.8464°
True anomaly
348.99525°
Mean anomaly
349.7153°
Eccentric anomaly
349.35834°
Mean motion
3.44899 °/min
Orbital period
104.38 mins
BSTAR
0.00064935
Loading maneuver chart data...
Computing Atmospheric mass density...
Loading historical data...
Loading historical data...
Loading historical data...
Loading historical data...
Loading historical data...
Loading historical data...
Loading historical data...

Documentation

Showing up to 5 results
|